Location: Aetna Mine
(37.6183°N, 107.6045°W)
Time: 00:24:12
(UTC+00:00)

Meteor 1-27 Rocket - Pass Details

Date: 18 September 2020
Orbit: 830 x 910 km, 81.3° (Epoch: 27 October)

Event Time Altitude Azimuth Distance (km) Brightness Sun altitude
Rises 12:15:10 0° 205° (SSW) 3,516 6.6 -8.7°
Reaches altitude 10° 12:17:43 10° 211° (SSW) 2,583 5.9 -8.2°
Maximum altitude 12:23:21 45° 283° (WNW) 1,220 4.2 -7.1°
Drops below altitude 10° 12:29:02 10° 356° (N) 2,598 6.3 -6.0°
Sets 12:31:37 0° 2° (N) 3,537 7.1 -5.5°
